Temp
-3 -3 -3 -3 -3 -3 -3 -3 -3 -2 -2 -2 -2 -1 -1 -1 -0 0 1 1 1 2 0 2 2 3 2 3 5 4 5 4 5 5 6 8 10 11 11 12 12 11 11 11 11 11 12 12 12 12 10 9 11 12
-3 -3 -3 -3 -3 -3 -3 -3 -3 -3 -2 -2 -2 -2 -1 -1 -1 -0 0 1 1 1 1 2 2 2 3 3 3 2 4 4 5 6 7 8 9 10 11 11 11 11 11 11 11 11 11 11 10 10 11 9 11 11
-4 -4 -3 -3 -3 -3 -3 -3 -3 -3 -3 -3 -2 -2 -2 -1 -1 -1 -0 0 1 1 1 1 1 2 2 2 2 2 3 3 3 4 4 6 8 9 9 10 10 11 10 10 10 10 9 8 8 11 11 11 11 10
-4 -4 -4 -4 -4 -4 -3 -3 -3 -3 -3 -3 -3 -2 -2 -2 -1 -1 -1 -0 0 1 1 0 0 1 2 2 2 2 2 2 3 4 3 5 6 8 9 8 8 8 9 9 10 9 8 7 8 9 10 10 9 10
-4 -4 -4 -4 -4 -4 -4 -3 -4 -3 -3 -3 -3 -3 -2 -2 -2 -1 -1 -1 -0 0 0 0 -0 -1 1 2 2 2 2 2 2 2 3 4 5 6 7 7 8 6 7 6 8 7 6 7 8 8 8 8 9 9
-5 -5 -5 -5 -4 -4 -4 -4 -4 -4 -4 -3 -3 -3 -3 -2 -2 -2 -2 -1 -0 -0 0 0 0 -0 1 1 1 1 1 2 1 1 3 4 5 4 6 7 7 7 5 5 5 5 6 5 6 7 7 6 7 8
-6 -5 -5 -5 -5 -5 -4 -4 -4 -4 -4 -4 -3 -3 -3 -3 -2 -2 -1 -2 -1 -1 -1 -1 1 -1 -1 0 -1 -1 -1 -0 0 1 2 3 4 4 4 5 5 5 4 4 3 5 5 5 5 5 6 5 6 7
-6 -6 -6 -6 -5 -5 -5 -5 -4 -4 -4 -4 -4 -3 -3 -3 -2 -2 -1 -1 -1 -1 -1 -1 -0 0 -0 -0 0 -0 0 0 0 1 2 3 3 3 4 4 4 4 3 4 3 3 3 4 4 5 5 5 5 5
-7 -7 -7 -6 -6 -6 -5 -5 -5 -5 -4 -4 -4 -4 -3 -3 -2 -2 -2 -2 -1 -1 -3 -1 -0 -1 -0 1 1 1 1 2 2 2 2 3 3 4 4 3 3 3 3 2 2 3 3 3 3 4 4 4 4 4
-7 -7 -7 -7 -6 -6 -6 -5 -5 -5 -5 -5 -5 -4 -4 -3 -3 -2 -2 -2 -2 -2 -1 0 -0 -1 1 1 1 1 1 2 2 3 3 3 4 4 4 3 3 2 2 1 1 2 2 2 2 3 3 3 3 4
-7 -7 -7 -7 -7 -6 -6 -6 -6 -5 -5 -6 -6 -6 -5 -4 -3 -3 -3 -3 -3 -3 -2 -0 -0 1 1 -0 0 -0 0 1 1 2 2 2 4 3 3 3 2 2 2 1 0 1 1 1 2 2 2 3 3 4
-8 -8 -8 -8 -7 -7 -6 -6 -6 -6 -5 -6 -6 -6 -5 -5 -4 -5 -4 -3 -2 -2 -1 -0 -0 0 -0 -0 0 -0 -0 0 1 2 1 3 2 1 2 1 1 2 1 0 0 0 0 1 1 2 2 2 3 3
-8 -8 -8 -9 -7 -7 -7 -6 -6 -6 -6 -6 -6 -6 -6 -5 -5 -4 -3 -1 -1 -2 -1 -1 -1 -1 -1 -1 -1 -1 0 1 3 1 3 2 1 2 2 2 1 1 1 0 0 0 -0 0 1 1 1 1 2 2
-8 -8 -9 -9 -8 -7 -7 -6 -6 -6 -6 -6 -6 -6 -5 -4 -3 -2 -2 -2 -2 -2 -2 -2 -2 -2 -1 -1 -1 0 1 1 1 2 1 0 0 0 1 0 -1 1 1 1 0 -1 -0 0 -0 1 1 1 1 1
-8 -9 -9 -8 -7 -7 -7 -6 -6 -6 -7 -6 -5 -5 -4 -3 -2 -3 -3 -2 -2 -2 -2 -2 -2 -1 -1 -1 -1 0 0 1 1 1 -0 -1 -1 1 1 0 0 -0 -0 0 1 0 -1 -1 -1 0 1 1 2 1
-9 -9 -9 -8 -7 -7 -7 -7 -7 -7 -6 -6 -5 -4 -3 -3 -3 -3 -2 -2 -2 -3 -2 -2 -2 -2 -1 -1 -1 0 1 1 -0 -1 -1 -1 -1 -0 -0 -0 -0 0 0 -0 0 0 1 1 1 2 2 1 2 1
-9 -9 -8 -8 -7 -7 -7 -7 -7 -7 -7 -6 -5 -4 -4 -3 -3 -3 -3 -3 -3 -3 -2 -2 -2 -2 -1 -1 -0 0 -1 -1 -1 -1 -1 -1 -0 -1 -1 -0 0 1 -0 -1 -0 1 1 0 1 1 0 -0 1 2
-9 -8 -8 -7 -7 -7 -7 -7 -8 -7 -6 -5 -5 -4 -4 -4 -3 -3 -3 -3 -3 -3 -3 -3 -3 -2 -1 -1 -1 -1 -1 -1 -2 -2 -1 -1 -1 -1 -1 -1 -1 -0 -1 0 0 1 1 1 1 1 1 -1 0 -0
-8 -8 -8 -8 -7 -7 -7 -7 -7 -6 -5 -5 -5 -4 -4 -4 -4 -3 -4 -3 -4 -4 -3 -3 -3 -2 -2 -2 -2 -2 -2 -2 -1 -1 -1 -1 -1 -1 -1 -1 -1 -1 0 1 0 0 1 1 1 1 1 1 1 1
-8 -8 -8 -7 -7 -7 -7 -7 -6 -6 -5 -5 -4 -4 -4 -4 -4 -4 -4 -4 -4 -4 -4 -4 -3 -3 -2 -2 -2 -2 -2 -2 -2 -1 -2 -1 -1 -1 -1 0 -1 0 -1 -1 0 0 0 0 -0 -1 -1 0 0 1
-8 -8 -8 -8 -7 -7 -6 -6 -6 -5 -5 -5 -5 -5 -5 -4 -5 -4 -4 -3 -3 -4 -4 -4 -3 -3 -3 -2 -2 -2 -2 -2 -2 -1 -1 -1 -1 0 -0 -1 -1 -0 -1 -1 -1 -1 -1 -0 -0 -0 0 0 0 -1
-8 -8 -8 -8 -7 -7 -7 -6 -6 -6 -5 -5 -5 -5 -5 -5 -4 -4 -4 -3 -4 -4 -4 -4 -4 -3 -3 -3 -2 -2 -2 -2 -1 -1 -1 -0 -0 -0 -1 -1 -1 -0 -0 -1 -1 -1 -1 -1 -1 -1 -1 -1 -1 -1
-8 -8 -8 -8 -8 -7 -6 -6 -6 -6 -5 -5 -5 -5 -5 -4 -4 -4 -4 -3 -3 -3 -3 -3 -3 -3 -2 -2 -2 -2 -2 -1 -1 -1 -1 -1 -1 -1 -1 -1 -1 -1 -1 -1 -2 -1 -1 -1 -2 -2 -2 -2 -2 -2
-7 -7 -7 -7 -7 -7 -6 -7 -6 -6 -5 -5 -5 -6 -5 -4 -4 -4 -3 -3 -3 -2 -2 -2 -2 -3 -3 -2 -2 -2 -1 -2 -2 -2 -1 -1 -1 -2 -2 -2 -2 -1 -2 -2 -2 -2 -2 -2 -2 -2 -2 -2 -2 -2
-7 -7 -7 -7 -7 -7 -7 -6 -5 -5 -5 -5 -5 -5 -4 -4 -4 -3 -3 -3 -3 -3 -3 -2 -2 -2 -2 -2 -2 -2 -2 -2 -2 -2 -2 -2 -2 -2 -2 -2 -2 -2 -2 -1 -2 -2 -3 -4 -4 -4 -5 -5 -5 -5
-7 -7 -7 -7 -7 -6 -6 -6 -5 -5 -5 -5 -4 -4 -4 -4 -3 -3 -3 -3 -3 -3 -3 -2 -2 -2 -2 -2 -2 -2 -2 -2 -2 -2 -2 -2 -3 -3 -2 -3 -2 -2 -3 -2 -3 -3 -4 -4 -3 -3 -3 -4 -4 -5
-6 -6 -6 -6 -5 -5 -5 -5 -5 -4 -4 -4 -4 -4 -4 -3 -3 -3 -3 -3 -3 -3 -2 -2 -2 -2 -2 -2 -2 -2 -2 -2 -3 -3 -3 -3 -3 -3 -4 -4 -4 -4 -3 -3 -4 -4 -3 -3 -4 -4 -4 -4 -5 -5
-5 -5 -5 -5 -5 -5 -4 -4 -4 -4 -4 -4 -3 -4 -3 -3 -3 -3 -3 -3 -3 -3 -2 -2 -2 -2 -2 -2 -2 -2 -2 -3 -4 -4 -4 -2 -2 -2 -2 -2 -2 -2 -2 -2 -4 -4 -4 -4 -4 -4 -5 -5 -4 -2
-5 -4 -4 -4 -4 -4 -4 -4 -4 -4 -4 -3 -3 -2 -3 -2 -2 -3 -3 -2 -3 -3 -3 -2 -3 -3 -2 -2 -3 -2 -3 -3 -3 -3 -3 -4 -4 -3 -2 -2 -2 -2 -3 -3 -3 -3 -2 -2 -3 -4 -3 -2 -2 -2
-4 -4 -4 -4 -4 -4 -4 -4 -4 -3 -3 -3 -2 -2 -3 -3 -2 -2 -3 -3 -3 -2 -3 -3 -3 -2 -2 -2 -2 -2 -2 -2 -2 -3 -3 -3 -3 -4 -4 -4 -4 -4 -4 -3 -2 -3 -3 -3 -3 -3 -3 -4 -4 -3
-4 -4 -4 -4 -4 -4 -4 -3 -3 -3 -3 -2 -3 -3 -3 -3 -3 -3 -3 -4 -3 -3 -3 -3 -3 -3 -3 -3 -3 -3 -3 -3 -3 -3 -3 -3 -4 -4 -4 -3 -4 -4 -4 -4 -4 -4 -4 -4 -5 -4 -4 -3 -2 -3
-4 -4 -3 -4 -4 -4 -4 -4 -4 -3 -3 -3 -3 -3 -3 -3 -3 -4 -3 -3 -3 -3 -3 -2 -2 -3 -3 -3 -3 -3 -3 -3 -2 -2 -2 -3 -4 -4 -4 -4 -4 -3 -4 -4 -4 -5 -4 -3 -3 -3 -2 -2 -2 -2
-4 -4 -4 -4 -4 -4 -4 -4 -4 -3 -3 -3 -3 -2 -2 -2 -3 -3 -3 -3 -3 -3 -3 -3 -3 -3 -3 -4 -2 -1 -1 -2 -2 -2 -2 -2 -2 -2 -2 -2 -2 -2 -2 -2 -2 -2 -2 -2 -2 -2 -2 -2 -2 -2
Height
3089 3089 3089 3089 3088 3088 3088 3087 3087 3087 3087 3088 3089 3090 3092 3093 3094 3096 3098 3099 3101 3102 3103 3103 3106 3109 3112 3116 3119 3116 3122 3123 3125 3126 3128 3127 3127 3127 3129 3130 3132 3134 3139 3141 3143 3143 3138 3138 3140 3141 3144 3141 3141 3134
3084 3085 3085 3085 3084 3084 3084 3084 3084 3084 3085 3085 3086 3088 3089 3091 3092 3093 3095 3096 3098 3099 3100 3102 3104 3106 3108 3108 3110 3112 3118 3120 3122 3124 3125 3125 3125 3125 3125 3125 3129 3133 3134 3134 3139 3139 3134 3131 3131 3135 3139 3138 3135 3136
3079 3080 3080 3080 3080 3080 3081 3081 3081 3081 3081 3082 3084 3085 3086 3088 3090 3091 3093 3094 3095 3097 3099 3100 3101 3101 3103 3105 3107 3112 3115 3112 3115 3115 3118 3121 3122 3124 3124 3125 3126 3128 3129 3132 3134 3133 3130 3129 3125 3128 3131 3133 3135 3136
3073 3074 3075 3076 3076 3076 3077 3077 3078 3078 3079 3079 3081 3082 3084 3085 3087 3089 3090 3092 3094 3095 3098 3100 3098 3097 3097 3099 3101 3105 3105 3109 3113 3116 3118 3119 3120 3120 3122 3123 3123 3121 3124 3128 3129 3129 3121 3107 3118 3127 3129 3132 3133 3133
3066 3068 3070 3071 3071 3072 3073 3074 3075 3075 3076 3077 3078 3080 3082 3083 3085 3087 3088 3090 3091 3095 3094 3096 3097 3095 3094 3095 3097 3100 3101 3106 3111 3115 3116 3117 3118 3120 3118 3119 3123 3121 3121 3122 3123 3122 3119 3116 3118 3123 3126 3128 3129 3131
3059 3061 3063 3065 3066 3067 3069 3070 3071 3073 3073 3074 3076 3077 3079 3081 3083 3085 3087 3088 3089 3091 3094 3098 3096 3094 3092 3092 3093 3095 3097 3101 3106 3111 3114 3115 3117 3116 3118 3118 3122 3121 3120 3119 3117 3119 3121 3123 3124 3123 3124 3124 3124 3125
3052 3054 3057 3059 3061 3063 3064 3066 3068 3070 3071 3072 3073 3075 3077 3079 3081 3084 3086 3088 3088 3090 3092 3096 3096 3092 3091 3090 3093 3095 3096 3101 3104 3107 3109 3111 3114 3112 3114 3114 3115 3114 3115 3115 3115 3118 3121 3122 3122 3122 3122 3121 3119 3120
3045 3048 3051 3054 3056 3058 3060 3063 3065 3067 3069 3070 3072 3073 3076 3078 3080 3082 3084 3085 3086 3089 3091 3093 3092 3093 3092 3094 3096 3097 3099 3100 3101 3103 3106 3107 3109 3109 3109 3111 3112 3113 3112 3113 3113 3114 3116 3117 3118 3118 3116 3119 3116 3116
3038 3041 3044 3048 3051 3053 3056 3059 3062 3064 3067 3068 3070 3072 3074 3076 3079 3080 3082 3084 3085 3089 3088 3091 3090 3090 3091 3094 3095 3097 3099 3099 3100 3100 3101 3104 3103 3103 3105 3106 3107 3109 3108 3106 3107 3107 3110 3112 3114 3113 3114 3115 3114 3113
3031 3035 3039 3042 3046 3050 3053 3056 3059 3063 3065 3067 3070 3072 3074 3076 3078 3080 3082 3083 3084 3085 3086 3086 3089 3085 3090 3093 3095 3097 3096 3097 3096 3097 3098 3098 3098 3100 3102 3103 3102 3102 3101 3102 3103 3104 3107 3109 3109 3109 3110 3111 3111 3110
3023 3028 3033 3037 3042 3046 3051 3054 3058 3061 3064 3067 3070 3072 3073 3075 3077 3079 3080 3082 3083 3086 3085 3085 3088 3088 3091 3090 3089 3090 3092 3094 3092 3094 3094 3092 3093 3094 3097 3095 3095 3096 3097 3098 3098 3099 3100 3102 3103 3100 3104 3105 3105 3104
3016 3021 3027 3032 3038 3043 3048 3052 3055 3059 3061 3065 3069 3072 3073 3076 3077 3079 3080 3083 3084 3084 3084 3086 3087 3089 3088 3087 3088 3088 3089 3090 3089 3089 3090 3088 3088 3088 3090 3089 3090 3091 3092 3091 3093 3095 3096 3097 3097 3097 3097 3098 3101 3099
3009 3016 3021 3028 3035 3041 3046 3050 3054 3059 3062 3066 3070 3072 3074 3076 3076 3078 3078 3080 3081 3080 3082 3083 3085 3085 3086 3087 3087 3087 3086 3087 3087 3085 3084 3083 3083 3085 3085 3086 3086 3086 3086 3086 3087 3087 3088 3092 3092 3093 3094 3093 3097 3097
3004 3011 3018 3026 3033 3039 3044 3049 3053 3057 3062 3067 3070 3071 3073 3074 3076 3076 3076 3076 3078 3079 3078 3080 3082 3083 3083 3085 3085 3084 3086 3085 3083 3081 3081 3080 3080 3081 3081 3081 3081 3079 3079 3079 3080 3081 3082 3082 3085 3087 3087 3089 3089 3090
3002 3009 3017 3026 3032 3038 3044 3048 3053 3057 3061 3065 3070 3071 3071 3073 3074 3074 3074 3075 3077 3077 3079 3081 3082 3084 3083 3084 3084 3084 3082 3080 3079 3078 3078 3077 3077 3077 3077 3076 3074 3073 3071 3070 3071 3072 3074 3076 3075 3077 3080 3081 3083 3083
3001 3010 3018 3026 3033 3038 3043 3048 3053 3057 3062 3065 3067 3069 3070 3072 3073 3074 3075 3073 3074 3076 3079 3081 3081 3081 3082 3082 3082 3081 3079 3078 3075 3075 3075 3074 3072 3071 3070 3068 3066 3064 3062 3060 3060 3060 3064 3066 3068 3070 3074 3076 3077 3079
3007 3014 3022 3028 3034 3039 3044 3049 3053 3058 3062 3063 3066 3068 3070 3071 3072 3071 3069 3074 3073 3077 3078 3078 3079 3079 3080 3080 3081 3080 3077 3076 3074 3072 3070 3067 3067 3063 3060 3057 3055 3054 3052 3052 3052 3054 3059 3062 3063 3066 3069 3060 3063 3070
3014 3019 3026 3031 3036 3041 3046 3050 3055 3059 3061 3063 3065 3068 3069 3070 3069 3070 3069 3071 3071 3074 3075 3076 3077 3077 3078 3078 3078 3077 3073 3072 3070 3067 3064 3062 3059 3055 3051 3051 3051 3051 3049 3048 3051 3054 3057 3059 3062 3062 3064 3066 3068 3069
3020 3025 3029 3034 3038 3042 3049 3054 3056 3059 3062 3062 3065 3066 3066 3067 3068 3068 3069 3070 3072 3073 3075 3076 3076 3076 3076 3075 3074 3071 3068 3066 3064 3063 3059 3056 3053 3053 3050 3050 3050 3049 3049 3050 3053 3055 3057 3060 3062 3065 3066 3068 3070 3072
3024 3029 3034 3039 3044 3047 3053 3058 3057 3059 3060 3062 3064 3063 3064 3066 3067 3067 3067 3068 3069 3070 3070 3072 3075 3072 3072 3069 3067 3065 3065 3063 3059 3057 3054 3051 3051 3050 3051 3051 3052 3052 3052 3053 3055 3056 3058 3061 3063 3065 3067 3069 3069 3069
3032 3035 3039 3044 3047 3050 3053 3058 3058 3060 3060 3062 3064 3063 3066 3066 3067 3067 3065 3063 3065 3063 3065 3068 3067 3066 3064 3064 3064 3063 3061 3058 3055 3053 3053 3052 3053 3053 3054 3054 3054 3054 3056 3056 3056 3056 3059 3062 3064 3067 3069 3070 3070 3071
3038 3042 3045 3048 3051 3053 3054 3057 3058 3060 3063 3063 3063 3063 3065 3064 3063 3062 3062 3060 3060 3061 3061 3060 3060 3060 3061 3060 3060 3060 3059 3057 3056 3055 3053 3054 3057 3057 3057 3057 3058 3058 3058 3057 3058 3058 3061 3064 3066 3068 3068 3070 3071 3073
3043 3047 3049 3052 3054 3054 3057 3057 3058 3059 3060 3061 3062 3061 3060 3060 3059 3059 3058 3058 3058 3058 3058 3057 3057 3058 3058 3057 3058 3058 3058 3058 3058 3058 3057 3058 3059 3061 3060 3061 3061 3061 3062 3062 3062 3064 3065 3066 3067 3068 3069 3070 3072 3074
3047 3049 3051 3054 3054 3055 3057 3056 3057 3057 3057 3058 3058 3058 3058 3058 3058 3058 3057 3057 3057 3056 3056 3057 3057 3057 3057 3057 3057 3059 3060 3061 3063 3063 3063 3063 3065 3065 3066 3067 3067 3067 3068 3068 3069 3070 3071 3072 3073 3073 3074 3075 3077 3078
3050 3052 3052 3052 3053 3054 3054 3054 3054 3055 3056 3056 3057 3057 3057 3057 3057 3057 3057 3058 3057 3057 3057 3058 3058 3058 3057 3059 3061 3063 3064 3066 3069 3070 3070 3072 3072 3073 3073 3074 3074 3074 3075 3077 3077 3078 3078 3078 3080 3083 3084 3084 3083 3084
3049 3050 3051 3051 3052 3052 3053 3053 3054 3055 3056 3056 3057 3057 3057 3057 3058 3058 3058 3058 3058 3058 3059 3060 3061 3062 3063 3066 3068 3070 3072 3074 3076 3076 3077 3077 3079 3080 3080 3081 3081 3081 3081 3082 3082 3083 3085 3084 3085 3085 3086 3086 3087 3088
3049 3049 3049 3050 3051 3052 3053 3054 3055 3056 3056 3056 3056 3057 3058 3058 3059 3060 3059 3059 3060 3061 3064 3066 3068 3070 3072 3074 3075 3077 3077 3080 3083 3084 3083 3084 3086 3087 3087 3087 3086 3086 3085 3088 3089 3087 3087 3087 3087 3089 3090 3091 3091 3091
3049 3049 3050 3052 3053 3054 3055 3055 3056 3055 3056 3057 3058 3057 3058 3059 3062 3063 3064 3066 3067 3069 3070 3072 3075 3077 3078 3082 3084 3085 3085 3085 3086 3088 3087 3087 3086 3086 3086 3087 3087 3088 3088 3088 3089 3089 3090 3091 3092 3092 3092 3090 3089 3088
3051 3051 3053 3054 3055 3056 3056 3057 3056 3057 3058 3058 3058 3059 3061 3063 3066 3067 3070 3072 3074 3076 3078 3081 3082 3084 3087 3087 3088 3090 3092 3095 3093 3093 3092 3092 3090 3089 3088 3089 3089 3090 3090 3090 3091 3091 3091 3091 3090 3090 3090 3089 3088 3088
3054 3055 3057 3057 3058 3058 3059 3058 3058 3058 3059 3061 3063 3064 3067 3070 3072 3074 3076 3078 3080 3082 3084 3086 3087 3091 3093 3096 3096 3096 3098 3097 3097 3097 3097 3096 3096 3096 3095 3095 3095 3094 3093 3092 3092 3092 3091 3091 3090 3090 3089 3089 3088 3087
3058 3059 3060 3062 3062 3063 3062 3061 3062 3064 3066 3067 3069 3072 3074 3076 3078 3080 3080 3084 3087 3087 3089 3092 3094 3094 3094 3095 3097 3097 3095 3094 3094 3095 3097 3098 3097 3096 3095 3095 3095 3094 3094 3094 3094 3094 3092 3092 3092 3090 3089 3088 3087 3086
3062 3064 3066 3067 3068 3069 3069 3069 3071 3071 3072 3074 3075 3077 3082 3084 3084 3084 3087 3089 3092 3093 3093 3096 3097 3096 3095 3095 3094 3094 3093 3093 3092 3093 3093 3094 3094 3094 3096 3097 3095 3093 3093 3092 3092 3092 3090 3090 3089 3088 3087 3086 3085 3084
3069 3070 3071 3072 3073 3074 3076 3077 3077 3079 3081 3083 3085 3086 3088 3088 3087 3087 3088 3090 3093 3093 3094 3095 3094 3093 3093 3093 3092 3092 3093 3093 3093 3094 3094 3094 3094 3094 3094 3093 3093 3092 3091 3091 3090 3090 3089 3088 3087 3086 3085 3084 3082 3081
Wind_Speed
13 13 13 14 13 14 14 13 13 12 11 11 13 12 13 12 11 10 10 12 14 19 9 14 23 23 8 8 10 6 10 9 6 11 14 15 16 18 22 21 15 21 23 27 25 23 30 20 17 8 10 7 6 8
15 14 13 14 13 14 15 14 13 12 11 11 13 12 13 13 11 10 10 10 12 14 18 10 13 19 27 22 22 8 11 11 8 10 12 14 17 13 16 15 22 8 22 21 19 19 17 16 12 17 17 10 15 12
17 17 15 15 15 14 15 14 13 13 12 11 12 12 13 13 12 10 9 8 9 9 11 12 9 14 17 22 26 20 9 22 10 16 7 8 15 14 11 19 11 16 11 11 6 10 9 11 14 16 19 17 15 9
20 18 18 16 16 15 15 14 14 13 12 12 12 12 12 12 11 10 8 7 7 5 4 9 16 19 13 18 23 27 25 23 24 22 10 10 10 7 13 7 9 8 18 17 17 12 17 12 11 14 15 12 5 11
21 20 19 18 16 16 15 15 14 13 12 12 11 12 12 11 10 10 8 7 7 11 15 10 6 8 9 13 17 22 30 30 20 15 15 16 13 14 12 10 10 4 13 11 15 12 10 15 12 10 8 11 14 16
22 21 21 19 17 16 16 15 15 13 12 11 11 11 12 11 10 10 7 9 8 10 11 2 6 14 14 10 13 16 19 24 23 12 11 13 14 14 13 13 12 16 9 10 13 13 13 3 12 11 12 8 11 20
23 22 22 20 18 17 17 15 15 13 12 10 11 11 12 12 11 11 12 7 8 8 10 3 4 5 4 3 5 6 9 9 10 12 13 13 12 12 16 20 11 14 8 6 6 16 7 12 12 10 11 15 18 19
23 23 22 22 20 19 18 15 14 13 11 10 11 11 12 12 11 11 10 9 8 8 11 4 5 5 3 4 5 6 6 7 9 11 12 14 15 14 16 14 21 17 18 20 20 9 8 7 13 17 15 16 14 19
24 24 24 23 21 19 17 15 14 13 11 9 10 10 11 11 10 10 9 9 9 12 9 5 7 6 5 11 10 7 8 10 7 11 13 13 15 18 15 15 16 15 15 16 13 15 19 14 12 19 21 16 13 20
27 24 24 24 22 20 17 14 13 12 10 9 9 8 8 8 8 8 7 7 8 12 13 11 6 8 10 8 10 8 6 10 8 13 10 19 16 15 14 15 14 14 18 12 9 13 11 15 15 19 15 18 18 21
30 28 26 27 23 21 18 15 14 13 12 11 9 7 8 6 6 5 5 3 4 4 7 10 6 7 4 8 13 11 6 8 8 10 12 13 16 8 17 17 18 21 24 25 16 16 15 12 17 13 20 22 22 24
28 29 26 28 24 21 19 16 17 18 19 17 13 8 7 5 4 4 4 4 5 5 5 9 7 6 6 7 11 14 5 4 6 8 7 11 11 15 18 21 22 21 17 14 11 12 14 15 18 25 13 20 18 15
32 28 29 28 25 22 20 17 17 14 15 15 12 8 6 5 6 5 6 6 6 5 9 6 11 6 5 7 7 3 4 7 6 5 8 8 13 16 17 21 22 20 20 19 21 17 12 16 16 19 24 13 12 18
31 29 35 29 25 23 21 19 20 19 19 16 8 8 6 4 4 5 6 5 7 4 8 7 4 8 8 6 5 4 7 7 5 11 8 8 10 11 14 13 17 24 24 22 23 20 22 19 17 20 18 27 13 19
29 32 36 27 25 23 21 20 21 23 20 11 5 6 5 4 3 3 3 5 4 7 5 3 4 4 2 5 3 5 3 5 5 3 4 8 12 14 18 21 23 22 24 27 27 27 26 23 22 26 23 24 26 22
30 38 33 26 24 22 21 21 23 24 18 10 6 6 4 3 4 4 3 4 6 4 5 5 5 4 6 3 3 4 5 3 2 3 9 13 21 23 24 26 28 29 30 33 30 26 27 26 26 22 21 22 25 25
34 33 26 24 23 22 21 22 24 21 8 9 5 6 5 4 5 4 7 10 6 3 5 3 2 5 2 3 5 7 7 10 16 17 20 27 28 31 29 25 21 19 22 19 15 18 20 19 20 20 18 27 26 27
28 26 24 23 22 22 21 20 18 6 6 6 4 6 3 5 10 8 8 10 11 5 7 6 5 4 3 4 5 7 11 14 16 23 28 29 25 24 18 11 7 8 9 9 11 13 14 13 15 14 20 7 9 6
23 23 24 23 24 25 20 20 12 6 8 4 5 7 3 9 4 2 4 5 8 6 7 8 5 7 7 10 16 17 20 25 25 28 24 20 16 8 5 4 2 1 7 11 12 14 14 12 12 10 9 11 9 7
25 23 23 23 21 20 12 7 8 6 5 7 4 10 6 1 6 3 2 8 8 7 10 9 6 14 11 16 19 19 23 26 24 17 12 6 3 4 4 5 5 9 6 7 8 8 10 12 12 13 11 9 7 5
20 22 24 24 18 14 9 6 3 2 0 4 4 7 5 5 6 9 14 14 13 14 9 10 17 23 24 26 26 24 21 13 13 1 1 5 9 10 8 9 9 15 6 6 7 6 14 11 12 13 11 10 6 5
19 20 22 16 12 5 9 4 2 6 5 3 3 3 6 9 12 15 16 14 9 7 13 15 18 20 21 17 12 7 7 2 6 6 8 14 9 12 9 11 9 8 6 4 5 7 11 12 10 9 10 9 7 8
17 12 9 5 3 3 5 5 7 8 4 5 6 7 12 12 10 9 5 4 4 5 6 6 6 4 5 5 5 4 4 12 17 16 10 9 14 6 9 9 9 8 10 11 14 15 14 11 8 8 12 15 14 13
10 12 6 2 2 4 4 8 5 11 7 10 7 6 5 4 4 2 2 1 5 6 6 6 4 2 2 2 8 16 18 20 22 19 20 20 22 27 23 21 19 21 20 18 17 19 20 17 18 18 18 16 14 13
5 4 4 7 8 6 7 6 6 5 3 4 5 3 3 2 3 3 5 4 3 3 4 5 5 6 13 20 21 20 22 22 20 19 23 23 24 22 23 23 23 18 21 18 18 19 21 22 20 13 12 12 12 11
1 2 4 4 5 5 5 6 5 4 5 3 3 3 6 5 4 5 8 8 7 8 7 11 19 22 31 35 33 28 25 24 23 21 23 25 22 15 17 14 13 13 13 9 8 13 13 10 10 10 10 10 11 8
3 3 5 6 6 7 7 8 6 4 2 2 6 7 5 4 4 10 14 17 18 24 31 32 28 29 28 24 23 20 17 21 17 16 15 13 11 12 10 10 9 12 15 8 6 6 7 10 11 12 10 7 6 4
4 7 9 9 9 10 9 5 4 2 3 2 4 4 3 7 17 18 20 27 27 29 26 23 24 21 18 17 15 12 12 15 15 10 9 8 8 8 8 8 9 7 6 9 10 9 9 8 7 6 5 5 5 3
8 11 15 12 10 5 2 2 1 4 4 3 11 18 22 21 24 26 24 25 26 23 20 20 17 21 20 21 18 14 15 6 5 10 9 9 8 9 9 9 10 8 8 6 4 3 2 1 3 4 3 3 4 5
8 10 10 7 9 8 5 6 7 11 15 17 20 24 24 23 26 23 19 17 16 17 18 18 21 13 9 9 8 9 8 6 5 7 7 8 8 7 6 6 5 3 2 3 2 1 2 2 3 4 3 5 6 8
13 16 21 18 16 15 13 17 24 21 19 22 22 23 22 20 17 16 16 11 8 10 11 7 6 6 6 9 9 6 6 7 11 13 11 5 5 6 4 4 3 2 0 2 1 4 8 6 2 6 6 6 8 9
24 16 16 17 16 14 13 15 15 18 17 15 14 18 13 10 10 10 11 9 7 7 12 10 7 7 6 7 12 15 10 8 10 8 11 10 8 6 6 2 3 4 1 2 2 2 3 3 6 7 9 9 9 11
24 24 18 14 13 12 11 11 11 10 10 10 9 8 6 4 4 7 8 6 6 6 6 7 7 7 8 8 7 3 1 3 3 4 3 2 2 0 2 4 4 4 4 5 5 6 6 6 7 8 9 10 12 12
Wind_Direction
269 272 278 278 278 281 282 281 276 274 265 253 237 231 232 228 220 221 225 223 218 209 215 239 213 201 205 210 212 239 182 217 228 224 226 229 240 235 232 240 234 216 217 229 242 254 258 262 272 255 233 281 292 317
265 266 271 275 277 276 278 278 277 270 262 254 241 234 228 229 224 221 226 225 225 224 218 250 231 225 222 201 202 173 201 197 221 227 232 235 240 246 248 245 228 218 229 231 227 250 244 244 237 232 242 268 288 300
260 262 266 270 274 273 271 274 275 270 260 252 244 234 227 228 229 224 225 229 233 231 241 260 283 244 236 224 223 203 202 218 217 210 227 224 242 238 265 237 242 228 225 225 242 217 216 211 237 241 247 256 275 297
257 256 259 264 267 269 268 266 270 269 262 248 243 234 229 225 230 226 225 226 228 216 168 216 270 287 251 228 224 217 220 214 217 211 246 236 253 261 232 253 224 259 233 231 230 246 252 152 224 245 244 243 247 253
253 251 252 255 259 262 261 259 262 265 260 245 238 231 227 220 222 225 223 220 214 193 176 164 293 263 271 235 225 223 229 229 226 232 244 248 259 262 255 253 226 5 236 230 215 226 240 271 289 277 277 267 258 258
248 246 246 247 251 254 253 254 254 258 258 242 232 226 221 213 213 216 213 219 219 204 193 228 233 280 279 252 227 227 227 227 227 222 226 231 239 259 241 246 254 279 248 251 250 236 226 306 306 285 278 273 258 262
244 243 241 241 243 246 247 247 246 248 252 237 226 220 214 207 209 216 223 213 207 191 173 244 253 263 254 231 186 194 215 209 221 228 231 229 237 251 239 234 269 235 229 200 243 246 251 259 254 252 286 289 284 268
240 239 237 236 236 238 239 239 237 238 241 229 220 215 210 205 205 215 218 211 200 192 185 206 240 222 214 170 193 199 221 238 222 228 223 232 238 249 243 243 237 271 279 257 256 254 254 264 271 255 233 241 260 280
239 234 231 229 227 229 230 229 226 225 225 216 212 209 207 202 203 210 212 209 201 200 183 213 250 197 190 184 218 180 212 229 246 235 233 222 230 235 245 252 253 242 258 248 260 268 244 235 274 260 262 271 257 274
232 233 227 222 219 218 217 217 212 208 204 195 195 195 200 193 196 201 207 208 205 210 216 204 242 278 156 194 204 211 203 222 242 225 231 229 238 238 243 243 250 239 245 248 267 256 254 251 260 255 259 264 272 272
228 228 222 214 212 209 208 205 197 190 181 169 162 175 205 179 181 183 200 185 187 214 234 198 256 219 191 222 218 219 199 212 236 232 222 227 223 239 221 232 228 235 248 252 261 244 236 260 250 246 246 271 256 253
221 216 220 202 204 202 199 194 188 187 183 169 176 170 140 143 176 173 158 165 207 217 177 211 218 222 246 235 235 233 215 230 238 212 209 229 227 219 213 213 231 251 268 233 221 257 258 255 256 250 256 267 263 263
210 207 205 188 196 192 189 186 180 176 173 169 157 154 164 192 202 187 192 185 198 194 205 185 201 216 192 218 226 244 235 223 248 212 232 245 218 222 232 231 248 267 274 254 231 222 226 257 249 249 234 257 255 279
193 197 187 178 186 183 180 175 172 166 159 149 151 182 170 182 194 219 219 169 191 210 192 174 216 201 193 215 234 236 224 247 248 241 235 222 236 232 259 264 269 273 269 261 254 231 230 226 246 236 241 237 235 245
181 188 172 173 175 174 171 168 167 162 153 136 164 203 210 195 206 171 218 202 191 214 150 178 233 233 246 238 212 262 244 232 229 244 232 260 269 271 279 279 275 270 273 267 273 262 242 230 231 222 226 230 226 246
176 171 159 166 167 167 164 165 163 162 159 149 181 189 204 200 213 183 209 206 118 194 196 213 217 201 220 240 255 256 264 284 338 257 259 262 272 289 296 291 285 278 272 275 270 258 237 249 245 239 236 243 216 232
164 153 157 162 164 163 163 164 166 168 163 168 168 231 191 199 190 231 172 193 157 158 197 219 227 195 217 227 245 266 281 295 288 289 288 283 299 300 293 287 282 276 274 267 249 224 227 229 230 227 246 233 204 216
145 149 154 157 157 158 158 168 151 155 188 170 197 190 214 209 217 208 220 186 193 171 213 213 221 240 233 234 247 267 265 260 272 279 292 301 298 302 293 255 265 279 271 228 209 206 208 216 221 240 254 235 200 237
140 147 148 152 154 150 151 155 147 158 184 188 202 204 235 207 169 215 213 244 252 245 233 245 251 240 256 258 252 259 266 272 288 299 300 296 291 286 345 204 206 235 155 154 166 181 189 199 230 228 242 237 225 227
137 141 143 143 144 128 128 181 160 143 179 188 179 215 179 129 163 232 239 247 231 241 245 218 241 248 250 263 267 267 280 292 297 302 306 312 315 197 127 95 126 115 138 164 169 181 199 202 192 204 198 208 227 244
130 138 139 144 135 129 117 137 172 224 185 148 202 211 192 221 241 241 249 269 274 270 233 226 227 236 247 256 265 274 287 296 304 50 93 143 125 114 115 128 157 184 167 202 164 168 148 162 174 181 194 200 205 291
139 143 145 150 145 135 135 161 166 174 183 224 236 217 229 222 226 259 279 280 276 235 236 236 242 247 258 271 262 266 302 286 117 78 98 133 141 129 138 141 146 122 130 136 125 195 182 172 185 207 220 243 270 279
128 141 120 163 160 144 136 154 204 155 216 186 227 241 243 249 265 273 262 257 243 235 250 234 224 225 235 216 225 256 141 113 91 77 91 130 121 108 113 89 102 96 134 107 105 119 126 124 118 121 112 114 129 138
133 121 149 199 192 116 196 199 207 211 214 227 245 233 253 241 265 250 232 154 125 121 123 132 141 168 229 177 132 132 124 107 97 84 84 92 96 95 92 95 91 91 99 104 107 107 110 113 119 118 120 109 106 106
140 148 138 168 170 215 207 211 200 196 201 210 195 209 218 210 170 137 135 122 136 163 147 145 134 125 124 124 119 111 108 112 112 113 102 100 101 95 95 98 98 101 93 94 96 99 89 80 70 68 90 103 101 97
148 135 152 167 163 184 175 160 152 165 162 168 187 164 134 109 88 125 129 133 119 110 129 132 129 120 116 110 102 91 92 106 109 97 94 89 82 77 75 85 96 94 85 76 69 85 104 152 153 134 127 120 103 99
157 168 172 162 158 152 149 140 138 141 145 148 149 131 100 92 104 129 115 124 124 123 113 110 103 107 108 109 110 101 95 98 104 97 76 89 105 103 121 121 108 95 81 74 94 136 109 103 95 85 87 104 118 119
105 129 135 133 129 138 135 128 144 60 81 138 155 128 114 134 135 127 132 124 124 115 99 99 111 89 89 96 94 93 93 80 82 102 112 117 111 114 115 112 111 113 134 138 110 97 97 108 129 152 166 197 215 215
118 131 129 109 111 126 141 114 180 159 149 158 135 130 126 133 123 126 125 124 119 115 113 103 107 105 88 67 70 74 92 117 116 95 84 78 70 71 87 96 100 102 104 104 101 83 52 76 150 168 222 300 337 345
126 139 140 96 95 98 96 123 136 139 132 134 136 131 125 126 124 125 113 108 104 97 99 94 102 85 92 118 127 120 109 102 98 95 94 92 91 99 94 85 73 58 29 23 52 31 347 290 294 289 327 350 338 341
112 110 102 96 93 92 84 106 110 117 123 124 130 125 113 114 123 127 110 92 93 80 79 96 100 116 126 130 124 146 147 164 169 140 122 125 147 170 166 115 47 4 59 175 108 330 313 30 314 288 314 314 325 317
119 112 94 100 103 99 105 112 106 98 116 123 106 108 100 119 123 132 135 128 127 148 148 133 138 161 158 159 177 183 183 162 175 177 162 178 176 135 90 15 245 247 323 326 354 298 315 287 295 313 318 319 317 315
113 106 105 107 112 113 112 104 107 110 112 112 111 111 103 116 138 148 132 145 178 157 151 174 178 179 162 168 194 215 124 170 185 182 189 176 176 283 331 335 345 328 320 315 317 318 320 313 310 311 310 311 313 314